Weather History for KCEC - January, 2013

Change the Weather History Date:

Saturday, January 12, 2013

  Actual Average Record
Temperature  
Mean Temperature 40 °F 48 °F  
Max Temperature 47 °F 55 °F 69 °F (2009)
Min Temperature 33 °F 41 °F 26 °F (2007)
Degree Days  
Heating Degree Days 25 17  
Month to date heating degree days 242 204  
Since 1 July heating degree days 2300 2360  
Cooling Degree Days 0 0  
Month to date cooling degree days 0 0  
Year to date cooling degree days 0 0  
Moisture  
Dew Point 27 °F    
Average Humidity 60    
Maximum Humidity 70    
Minimum Humidity 49    
Precipitation  
Precipitation 0.00 in 0.36 in 3.00 in (1959)
Month to date precipitation 1.16 4.98  
Year to date precipitation 1.16 4.98  
Since 1 July precipitation 34.86 32.08  
Snow  
Snow 0.00 in - - ()
Month to date snowfall 0.0  
Since 1 July snowfall 0.0  
Snow Depth 0.00 in    
Sea Level Pressure  
Sea Level Pressure 30.27 in    
Wind  
Wind Speed 5 mph (NE)    
Max Wind Speed 8 mph    
Max Gust Speed -    
Visibility 10 miles    
Events      
T = Trace of Precipitation, MM = Missing Value Source: NWS Daily Summary

Daily Weather History Graph

Daily Weather History Graph

Search for Another Location

Airport or City:

Trip Planner

Search our weather history database for the weather conditions in past years. The results will help you decide how hot, cold, wet, or windy it might be!

Date:

Astronomy

Jan. 12, 2013 Rise Set
Actual Time 7:42 AM PST 5:08 PM PST
Civil Twilight 7:12 AM PST 5:39 PM PST
Nautical Twilight 6:37 AM PST 6:13 PM PST
Astronomical Twilight 6:04 AM PST 6:47 PM PST
Moon 8:04 AM PST (1/12) 6:46 PM PST (1/12)
Length of Visible Light 10h 27m
Length of Day
9h 25m
New Moon, 2% of the Moon is Illuminated
Jan 12
New Moon
Jan 18
First Quarter
Jan 26
Full
Feb 3
Last Quarter
Feb 9
New

Hourly Weather History & Observations

Time (PST) Temp. Windchill Dew Point Humidity Pressure Visibility Wind Dir Wind Speed Gust Speed Precip Events Conditions
12:56 AM - - - N/A% 30.29 in 10.0 mi NE 4.6 mph - N/A   Partly Cloudy
1:56 AM - - - N/A% 30.28 in 10.0 mi NE 3.5 mph - N/A   Overcast
2:56 AM - - - N/A% 30.29 in 10.0 mi NE 4.6 mph - N/A   Overcast
3:56 AM - - - N/A% 30.28 in 10.0 mi NE 4.6 mph - N/A   Overcast
4:56 AM - - - N/A% 30.27 in 10.0 mi NE 4.6 mph - N/A   Overcast
5:56 AM - - - N/A% 30.27 in 10.0 mi ENE 5.8 mph - N/A   Overcast
6:56 AM - - - N/A% 30.28 in 10.0 mi NE 3.5 mph - N/A   Overcast
7:56 AM - - - N/A% 30.29 in 10.0 mi ENE 4.6 mph - N/A   Overcast
8:56 AM - - - N/A% 30.29 in 10.0 mi East 4.6 mph - N/A   Overcast
9:56 AM - - - N/A% 30.29 in 10.0 mi East 5.8 mph - N/A   Overcast
10:56 AM - - - N/A% 30.29 in 10.0 mi East 4.6 mph - N/A   Overcast
11:56 AM - - - N/A% 30.26 in 10.0 mi Calm Calm - N/A   Overcast
12:56 PM 45.0 °F 41.2 °F 30.0 °F 56% 30.25 in 10.0 mi NW 6.9 mph - N/A   Overcast
1:56 PM 45.0 °F 40.6 °F 30.0 °F 56% 30.25 in 10.0 mi NNW 8.1 mph - N/A   Overcast
2:56 PM 46.9 °F - 33.1 °F 59% 30.25 in 10.0 mi North 4.6 mph - N/A   Overcast
3:56 PM 46.9 °F - 28.0 °F 48% 30.24 in 10.0 mi NNW 5.8 mph - N/A   Mostly Cloudy
4:56 PM 43.0 °F 39.5 °F 28.9 °F 58% 30.24 in 10.0 mi North 5.8 mph - N/A   Clear
5:56 PM 39.9 °F 35.8 °F 30.0 °F 68% 30.25 in 10.0 mi NE 5.8 mph - N/A   Clear
6:56 PM 36.0 °F 31.1 °F 26.1 °F 67% 30.24 in 10.0 mi North 5.8 mph - N/A   Clear
7:56 PM 33.1 °F 30.0 °F 25.0 °F 72% 30.26 in 10.0 mi Variable 3.5 mph - N/A   Clear
8:56 PM 35.1 °F 30.1 °F 25.0 °F 67% 30.26 in 10.0 mi NNE 5.8 mph - N/A   Clear
9:56 PM 37.0 °F 31.0 °F 25.0 °F 62% 30.26 in 10.0 mi ENE 8.1 mph - N/A   Clear
10:56 PM 35.1 °F 30.1 °F 24.1 °F 64% 30.29 in 10.0 mi NE 5.8 mph - N/A   Clear
11:56 PM 36.0 °F 29.0 °F 24.1 °F 62% 30.29 in 10.0 mi NE 9.2 mph - N/A   Clear